• In Kazakhstan
  • List of Countries
  • For 7 days
  • Water Temperature
  • Satellite Maps
  • Weather Map
  • News
  • Weather Widgets
  • user-avatar
    Login

    Hourly Weather Olszowa

    Today, 21 April, Sunday

    Time Temperature Precipitation Wind Pressure Humidity
    00:00 +10°C° 0 mm 1 mps 744 mmHg 63%
    01:00 +9°C° 0 mm 1 mps 744 mmHg 67%
    02:00 +8°C° 0 mm 1 mps 744 mmHg 70%
    03:00 +8°C° 0 mm 1 mps 743 mmHg 72%
    04:00 +7°C° 0 mm 1 mps 743 mmHg 75%
    05:00 +8°C° 0 mm 1 mps 743 mmHg 71%
    06:00 +9°C° 0 mm 1 mps 743 mmHg 67%
    07:00 +9°C° 0 mm 2 mps 743 mmHg 64%
    08:00 +12°C° 0 mm 2 mps 743 mmHg 56%
    09:00 +14°C° 0 mm 2 mps 743 mmHg 49%
    10:00 +16°C° 0 mm 3 mps 742 mmHg 42%
    11:00 +17°C° 0 mm 3 mps 742 mmHg 39%
    12:00 +17°C° 0 mm 3 mps 742 mmHg 36%
    13:00 +18°C° 0 mm 3 mps 742 mmHg 33%
    14:00 +18°C° 0 mm 3 mps 741 mmHg 33%
    15:00 +18°C° 0 mm 3 mps 741 mmHg 33%
    16:00 +18°C° 0 mm 3 mps 740 mmHg 33%
    17:00 +17°C° 0 mm 2 mps 740 mmHg 39%
    18:00 +15°C° 0 mm 2 mps 739 mmHg 44%
    19:00 +13°C° 0 mm 2 mps 739 mmHg 50%
    20:00 +12°C° 0 mm 2 mps 739 mmHg 52%
    21:00 +10°C° 0 mm 2 mps 739 mmHg 55%
    22:00 +10°C° 0 mm 1 mps 739 mmHg 57%
    23:00 +9°C° 0 mm 2 mps 739 mmHg 60%

    Tomorrow, 22 April, Monday

    Time Temperature Precipitation Wind Pressure Humidity
    00:00 +8°C° 0 mm 2 mps 739 mmHg 62%
    01:00 +8°C° 0 mm 2 mps 738 mmHg 65%
    02:00 +7°C° 0 mm 2 mps 738 mmHg 69%
    03:00 +6°C° 0 mm 2 mps 738 mmHg 74%
    04:00 +6°C° 0 mm 2 mps 738 mmHg 78%
    05:00 +7°C° 0 mm 2 mps 738 mmHg 75%
    06:00 +7°C° 0 mm 3 mps 738 mmHg 71%
    07:00 +8°C° 0 mm 3 mps 738 mmHg 68%
    08:00 +10°C° 0 mm 3 mps 738 mmHg 60%
    09:00 +11°C° 0 mm 3 mps 738 mmHg 51%
    10:00 +13°C° 0 mm 3 mps 738 mmHg 43%
    11:00 +14°C° 0 mm 4 mps 738 mmHg 41%
    12:00 +15°C° 0 mm 5 mps 738 mmHg 38%
    13:00 +15°C° 0 mm 5 mps 737 mmHg 36%
    14:00 +16°C° 0 mm 6 mps 737 mmHg 37%
    15:00 +16°C° 0 mm 6 mps 737 mmHg 39%
    16:00 +16°C° 0 mm 7 mps 737 mmHg 40%
    17:00 +15°C° 0 mm 6 mps 737 mmHg 47%
    18:00 +14°C° 0 mm 6 mps 737 mmHg 53%
    19:00 +12°C° 0 mm 5 mps 736 mmHg 60%
    20:00 +12°C° 0 mm 5 mps 737 mmHg 63%
    21:00 +10°C° 0 mm 6 mps 737 mmHg 66%
    22:00 +9°C° 0 mm 6 mps 737 mmHg 69%
    23:00 +9°C° 0 mm 5 mps 736 mmHg 69%

    Day after tomorrow, 23 April, Tuesday

    Time Temperature Precipitation Wind Pressure Humidity
    00:00 +8°C° 0 mm 5 mps 736 mmHg 69%
    01:00 +7°C° 0 mm 5 mps 736 mmHg 69%
    02:00 +7°C° 0.2 mm 5 mps 736 mmHg 73%
    03:00 +7°C° 0.2 mm 5 mps 735 mmHg 77%
    04:00 +7°C° 0.2 mm 5 mps 735 mmHg 80%
    05:00 +8°C° 0.5 mm 5 mps 735 mmHg 80%
    06:00 +8°C° 0.5 mm 5 mps 735 mmHg 80%
    07:00 +8°C° 0.5 mm 6 mps 735 mmHg 80%
    08:00 +10°C° 0 mm 6 mps 735 mmHg 72%
    09:00 +14°C° 0 mm 6 mps 735 mmHg 64%
    10:00 +16°C° 0 mm 6 mps 735 mmHg 55%
    11:00 +16°C° 0.4 mm 6 mps 735 mmHg 58%
    12:00 +16°C° 0.4 mm 5 mps 735 mmHg 61%
    13:00 +15°C° 0.4 mm 5 mps 735 mmHg 63%
    14:00 +14°C° 0.6 mm 5 mps 734 mmHg 67%
    15:00 +14°C° 0.6 mm 5 mps 734 mmHg 71%
    16:00 +13°C° 0.6 mm 5 mps 734 mmHg 75%
    17:00 +12°C° 0.5 mm 5 mps 734 mmHg 78%
    18:00 +10°C° 0.5 mm 5 mps 734 mmHg 80%
    19:00 +9°C° 0.5 mm 5 mps 734 mmHg 83%
    20:00 +9°C° 0.4 mm 5 mps 734 mmHg 83%
    21:00 +9°C° 0.4 mm 5 mps 734 mmHg 82%
    22:00 +10°C° 0.4 mm 4 mps 734 mmHg 82%
    23:00 +10°C° 0 mm 4 mps 733 mmHg 83%

    24 April, Wednesday

    Time Temperature Precipitation Wind Pressure Humidity
    00:00 +8°C° 0 mm 4 mps 733 mmHg 84%
    01:00 +8°C° 0 mm 4 mps 733 mmHg 85%
    02:00 +8°C° 0 mm 4 mps 733 mmHg 86%
    03:00 +7°C° 0 mm 4 mps 733 mmHg 86%
    04:00 +7°C° 0 mm 4 mps 733 mmHg 87%
    05:00 +8°C° 0 mm 4 mps 733 mmHg 83%
    06:00 +10°C° 0 mm 4 mps 733 mmHg 80%
    07:00 +11°C° 0 mm 4 mps 734 mmHg 77%
    08:00 +14°C° 0 mm 5 mps 734 mmHg 71%
    09:00 +16°C° 0 mm 5 mps 735 mmHg 65%
    10:00 +19°C° 0 mm 6 mps 735 mmHg 59%
    11:00 +20°C° 0.1 mm 6 mps 735 mmHg 57%
    12:00 +20°C° 0.1 mm 6 mps 735 mmHg 56%
    13:00 +21°C° 0.1 mm 6 mps 736 mmHg 54%
    14:00 +21°C° 0.2 mm 6 mps 736 mmHg 56%
    15:00 +20°C° 0.2 mm 6 mps 736 mmHg 58%
    16:00 +20°C° 0.2 mm 5 mps 736 mmHg 60%
    17:00 +19°C° 0 mm 5 mps 736 mmHg 62%
    18:00 +18°C° 0 mm 4 mps 736 mmHg 64%
    19:00 +17°C° 0 mm 4 mps 736 mmHg 66%
    20:00 +15°C° 0 mm 4 mps 736 mmHg 68%
    21:00 +15°C° 0 mm 4 mps 736 mmHg 69%
    22:00 +14°C° 0 mm 4 mps 736 mmHg 71%
    23:00 +14°C° 0 mm 4 mps 736 mmHg 73%

    25 April, Thursday

    Time Temperature Precipitation Wind Pressure Humidity
    00:00 +14°C° 0 mm 4 mps 735 mmHg 76%
    01:00 +13°C° 0 mm 4 mps 735 mmHg 78%
    02:00 +13°C° 0 mm 4 mps 735 mmHg 81%
    03:00 +12°C° 0 mm 4 mps 735 mmHg 83%
    04:00 +12°C° 0 mm 3 mps 735 mmHg 86%
    05:00 +13°C° 0 mm 4 mps 735 mmHg 82%
    06:00 +14°C° 0 mm 4 mps 736 mmHg 78%
    07:00 +15°C° 0 mm 5 mps 736 mmHg 74%
    08:00 +16°C° 0 mm 5 mps 736 mmHg 69%
    09:00 +19°C° 0 mm 5 mps 736 mmHg 65%
    10:00 +20°C° 0 mm 5 mps 737 mmHg 60%
    11:00 +21°C° 0 mm 5 mps 737 mmHg 58%
    12:00 +22°C° 0 mm 5 mps 737 mmHg 56%
    13:00 +23°C° 0 mm 5 mps 737 mmHg 53%
    14:00 +23°C° 0 mm 5 mps 736 mmHg 53%
    15:00 +23°C° 0 mm 5 mps 736 mmHg 52%
    16:00 +23°C° 0 mm 5 mps 736 mmHg 52%
    17:00 +22°C° 0 mm 4 mps 736 mmHg 58%
    18:00 +20°C° 0 mm 3 mps 736 mmHg 64%
    19:00 +19°C° 0 mm 2 mps 736 mmHg 69%
    20:00 +19°C° 0.1 mm 3 mps 735 mmHg 70%
    21:00 +18°C° 0.1 mm 3 mps 735 mmHg 71%
    22:00 +18°C° 0.1 mm 4 mps 735 mmHg 71%
    23:00 +17°C° 0 mm 4 mps 735 mmHg 73%

    26 April, Friday

    Time Temperature Precipitation Wind Pressure Humidity
    00:00 +17°C° 0 mm 4 mps 735 mmHg 75%
    01:00 +15°C° 0 mm 4 mps 734 mmHg 77%
    02:00 +15°C° 0 mm 4 mps 734 mmHg 78%
    03:00 +15°C° 0 mm 4 mps 734 mmHg 79%
    04:00 +14°C° 0 mm 4 mps 733 mmHg 80%
    05:00 +15°C° 0 mm 5 mps 733 mmHg 76%
    06:00 +16°C° 0 mm 5 mps 734 mmHg 72%
    07:00 +17°C° 0 mm 6 mps 734 mmHg 68%
    08:00 +20°C° 0 mm 6 mps 734 mmHg 64%
    09:00 +21°C° 0 mm 6 mps 734 mmHg 59%
    10:00 +23°C° 0 mm 6 mps 734 mmHg 54%
    11:00 +23°C° 0 mm 6 mps 734 mmHg 52%
    12:00 +24°C° 0 mm 6 mps 734 mmHg 49%
    13:00 +26°C° 0 mm 6 mps 734 mmHg 47%
    14:00 +26°C° 0 mm 6 mps 733 mmHg 48%
    15:00 +26°C° 0 mm 6 mps 733 mmHg 49%
    16:00 +24°C° 0 mm 6 mps 733 mmHg 49%
    17:00 +22°C° 1.5 mm 5 mps 733 mmHg 61%
    18:00 +20°C° 1.5 mm 5 mps 734 mmHg 72%
    19:00 +16°C° 1.5 mm 5 mps 734 mmHg 83%
    20:00 +15°C° 1 mm 5 mps 735 mmHg 86%
    21:00 +13°C° 1 mm 5 mps 735 mmHg 88%
    22:00 +12°C° 1 mm 5 mps 735 mmHg 90%
    23:00 +10°C° 0.3 mm 5 mps 736 mmHg 90%
    Show more